Wind_Speed
29 28 28 30 32 32 33 34 34 34 34 33 32 31 30 29 27 24 23 26 26 25 23 22 21 21 21 21 21 19 18 18 18 18 19 20 21 21 22 21 21 22 22 23 22 22 22 22 22 22 23 23 22 21 20 19 18 17 17 16 14 14 15 15 15 16 16 16 16 15 13 12 11 11 11 13 16 19 21 22 22 24 25 24 24 24 24
27 27 27 28 30 32 33 35 35 34 34 34 33 32 31 29 29 27 23 23 24 24 23 22 21 21 21 20 19 18 18 18 18 18 19 20 21 22 21 21 21 22 21 21 21 21 22 22 22 22 23 23 21 20 18 18 16 16 15 14 13 13 14 14 15 15 15 15 15 15 14 13 13 12 13 14 16 19 20 21 23 26 27 26 25 25 24
25 25 25 26 27 29 31 33 35 35 35 35 33 32 30 29 29 28 27 25 24 22 22 22 21 22 21 21 20 19 18 19 19 19 21 21 22 22 22 22 22 22 21 20 21 21 22 22 22 22 22 22 20 19 17 16 16 15 14 14 14 14 14 14 14 14 15 15 15 14 14 14 13 13 13 14 16 18 20 22 25 28 28 27 27 27 25
24 25 24 25 26 27 29 31 33 34 35 34 33 31 30 28 28 28 26 26 24 22 22 21 21 21 21 22 22 21 21 21 21 22 22 22 22 22 23 24 23 23 23 22 22 22 21 21 22 22 22 21 20 19 17 16 16 15 15 15 15 14 14 13 13 13 14 15 15 14 14 14 14 14 14 14 15 17 19 21 24 26 27 27 27 27 25
24 25 25 25 26 27 29 31 32 33 33 33 33 32 31 30 29 27 24 24 23 23 23 22 21 21 20 21 22 23 23 24 24 24 23 22 22 22 23 25 25 25 24 24 24 24 22 22 22 23 22 21 20 19 18 17 17 16 15 14 14 14 13 13 13 13 13 15 15 14 14 14 15 14 14 14 15 16 17 19 22 23 24 25 26 25 25
24 25 25 26 27 28 29 30 30 31 32 32 32 32 32 31 30 28 26 24 23 23 23 22 22 23 22 22 23 23 24 25 26 25 25 23 22 22 24 26 27 27 26 25 25 25 24 24 24 24 23 22 20 20 18 17 17 17 15 14 14 14 13 13 13 12 12 14 14 14 14 15 16 16 15 14 14 15 16 18 20 22 22 24 24 24 24
25 25 26 27 28 27 27 27 28 30 30 31 31 31 31 31 30 29 27 26 26 25 25 23 23 23 24 24 24 24 24 25 26 26 25 24 23 24 24 24 25 27 27 26 26 26 25 25 26 26 25 23 21 20 19 18 18 18 16 15 14 13 13 12 12 12 12 13 14 14 14 15 16 17 18 15 12 12 13 15 17 20 21 22 22 23 24
25 26 27 27 26 26 26 27 28 29 30 31 31 31 31 31 31 30 29 28 28 27 26 25 24 24 24 24 24 24 24 24 24 25 25 24 24 24 23 22 23 25 25 25 25 26 26 26 27 27 26 24 22 20 19 18 18 18 17 16 15 14 14 13 12 12 13 13 14 14 14 16 16 17 19 18 14 12 12 14 15 17 19 20 21 22 24
22 25 26 25 24 25 26 26 27 28 29 30 31 31 32 32 32 32 31 30 29 28 26 26 26 26 26 26 24 24 24 24 23 23 23 24 25 25 23 22 22 23 24 23 24 25 26 27 28 27 26 25 22 20 20 19 18 17 17 17 16 15 15 15 14 14 13 14 14 14 14 16 17 17 18 18 17 16 14 14 16 17 18 20 22 23 24
20 22 23 24 24 25 25 26 28 29 29 29 30 30 31 32 32 32 32 31 30 29 28 27 28 28 27 26 25 24 24 25 24 22 23 24 25 25 24 23 23 24 24 24 23 23 25 26 27 27 27 25 23 21 21 20 19 18 17 17 17 17 17 17 16 16 15 15 15 16 15 15 16 18 18 18 19 19 17 14 15 20 21 21 24 27 27
21 22 23 23 24 25 25 27 28 29 29 29 29 29 30 31 30 31 31 31 30 30 28 28 28 27 26 25 25 25 25 26 25 24 23 23 24 26 25 25 25 25 25 25 24 23 24 26 27 28 27 26 24 23 22 21 20 18 17 17 17 18 18 18 18 18 18 17 17 17 17 16 16 17 18 18 18 20 19 16 14 18 23 24 25 27 28
23 24 24 24 25 26 26 27 28 28 28 28 29 30 30 29 29 29 29 29 29 28 27 26 25 24 24 24 25 25 26 28 27 25 24 23 24 26 27 26 26 26 26 26 26 25 25 25 27 28 28 26 25 24 24 23 21 19 18 17 17 17 18 19 19 19 20 20 20 19 19 18 18 17 17 17 17 18 19 19 17 16 19 24 26 27 27
26 26 27 27 26 26 26 27 27 27 27 28 29 30 29 28 28 29 29 28 28 27 27 26 24 24 24 23 24 26 27 28 27 26 24 24 24 26 27 27 26 27 27 28 28 28 27 27 28 29 29 27 26 25 25 24 22 21 20 19 19 19 20 20 21 21 22 22 23 23 22 21 20 20 19 18 17 17 17 19 19 18 17 19 23 27 28
27 27 28 28 26 25 25 25 26 27 27 27 28 28 28 28 28 29 29 29 29 28 28 27 26 26 25 23 24 26 27 26 26 26 25 24 24 25 27 27 28 29 29 29 30 30 30 29 28 29 29 27 26 25 25 24 23 23 22 22 22 22 23 23 23 23 24 24 24 25 24 23 23 22 21 20 19 17 16 17 18 19 18 17 18 20 23
26 26 27 26 25 24 25 25 26 26 26 27 27 27 28 28 28 28 28 28 28 28 28 27 26 26 25 24 24 25 25 25 26 26 25 25 25 24 26 29 31 31 30 29 29 30 32 31 30 29 29 28 26 25 25 24 24 25 25 25 25 25 25 25 24 24 24 24 24 25 25 25 24 24 24 23 22 19 18 17 18 18 18 18 17 17 18
25 25 25 24 24 24 25 25 25 26 25 26 26 27 27 27 27 28 28 28 28 27 27 26 25 25 25 25 24 24 24 24 25 26 27 27 26 25 27 29 28 25 23 21 21 24 28 31 31 30 29 28 26 25 25 25 26 27 27 26 25 25 25 25 24 24 23 23 23 24 24 25 25 25 25 25 25 23 20 19 20 19 19 19 18 18 18
24 24 24 24 24 25 25 25 25 25 25 25 25 26 26 26 26 27 28 28 28 28 27 26 25 25 25 25 25 25 25 25 25 26 27 27 27 27 29 28 24 19 17 16 16 19 23 26 28 29 28 28 27 26 26 27 28 28 27 26 25 25 25 25 24 23 23 23 23 23 23 23 24 25 26 26 26 25 23 22 22 22 21 21 20 20 19
25 25 24 24 24 24 24 24 25 25 25 25 25 25 25 25 26 26 27 28 28 28 28 27 26 25 26 26 26 26 26 26 26 25 26 27 28 27 26 25 22 19 18 18 18 19 23 25 27 28 27 27 27 26 27 28 28 27 27 26 26 25 24 24 24 24 24 23 23 23 24 24 24 25 26 26 26 26 25 23 23 23 23 23 22 21 21
25 25 24 24 24 24 24 24 24 24 24 24 25 25 25 25 25 26 27 27 27 28 28 28 28 27 26 26 27 27 27 27 26 26 26 26 24 22 22 23 22 21 20 20 20 22 24 26 28 28 28 27 27 27 27 27 27 27 27 27 26 26 25 25 25 25 25 25 25 25 25 25 26 26 27 27 27 27 27 25 23 22 23 24 24 24 23
26 25 24 24 24 24 24 24 24 24 25 25 25 25 25 25 25 26 26 27 27 27 27 28 28 28 27 27 27 27 28 29 29 29 28 25 21 21 23 24 23 22 23 23 23 24 25 26 27 28 28 28 28 28 28 27 27 27 28 28 28 28 27 27 26 26 26 27 27 27 26 26 26 26 27 27 27 27 27 26 25 23 22 23 24 25 25
28 27 26 26 26 26 26 25 25 26 26 25 26 26 26 26 26 26 26 27 27 27 27 27 28 28 28 27 27 27 29 30 30 30 30 29 26 24 24 25 24 24 24 24 25 25 26 27 27 27 28 28 28 28 27 27 27 27 28 28 29 29 29 28 27 26 27 27 27 27 27 27 27 26 26 26 26 27 26 27 27 27 26 25 25 25 26
31 30 29 29 28 27 27 26 27 27 27 27 27 27 27 27 27 27 27 27 27 27 27 28 28 28 28 28 28 27 28 29 29 30 29 28 27 26 26 26 26 25 25 25 25 26 27 27 27 27 27 27 26 27 27 27 28 28 28 29 29 29 29 29 29 28 28 28 28 28 28 28 28 28 28 27 27 27 27 28 28 28 29 29 28 27 27
32 30 29 29 28 27 27 27 27 28 28 28 28 28 28 28 28 28 28 27 27 27 28 28 28 28 28 29 29 29 29 29 29 29 28 26 25 25 24 23 23 23 25 25 25 26 26 26 26 26 26 25 25 26 27 28 29 29 29 28 28 28 28 28 29 29 29 29 29 29 30 29 29 30 30 30 29 29 29 30 31 31 31 31 31 30 29
29 28 27 27 27 27 27 27 27 27 28 28 28 28 28 28 29 29 28 27 26 27 27 27 27 28 28 28 29 30 30 30 29 29 28 27 26 24 22 20 19 20 22 22 21 21 22 23 23 24 25 25 26 27 27 28 28 28 27 27 27 27 26 26 26 27 28 29 29 29 30 30 30 30 31 31 31 31 30 31 32 32 33 34 34 34 33
27 27 26 26 26 25 25 25 26 27 27 27 27 27 27 27 28 28 27 26 26 26 25 24 25 26 26 27 28 29 30 30 29 28 28 29 29 28 26 23 22 22 21 21 20 21 21 22 23 24 25 26 26 26 26 26 25 25 25 25 25 25 25 25 25 25 26 27 28 28 29 30 30 30 31 31 31 31 31 31 32 33 34 35 35 36 37
26 25 24 24 23 22 22 21 21 22 24 25 25 25 25 25 26 26 25 25 24 24 23 23 23 23 24 25 26 26 26 26 26 26 26 27 28 28 27 26 25 25 25 26 26 26 25 25 24 24 24 24 24 24 24 24 23 24 24 24 24 24 25 25 26 26 26 27 28 29 29 30 31 31 31 31 31 30 30 30 32 33 34 36 37 38 40
25 24 23 22 20 18 17 16 16 17 19 21 22 23 23 23 23 23 23 23 22 22 22 21 20 20 20 21 21 21 21 21 21 22 22 23 23 24 23 23 23 24 24 25 25 24 23 22 22 22 22 22 23 23 24 24 25 25 26 26 27 27 27 28 28 29 29 30 30 31 31 32 32 33 33 32 32 32 32 31 32 34 35 37 38 40 41
22 21 21 19 18 17 16 15 15 16 18 20 22 23 23 22 22 21 21 21 20 20 19 19 18 18 17 17 17 18 18 18 18 18 19 19 18 18 18 18 19 19 19 20 21 21 21 21 22 22 23 23 24 25 26 27 28 29 29 30 31 31 32 32 33 33 34 35 35 36 36 36 37 37 37 37 36 36 36 36 36 36 37 38 39 40 41
18 19 18 18 17 17 16 16 16 18 20 21 21 21 20 20 20 20 20 19 18 18 18 17 17 16 16 15 16 16 17 18 18 19 19 19 19 18 18 18 17 17 18 19 20 21 23 23 24 25 25 26 26 27 28 28 29 29 30 31 31 32 32 33 33 34 34 35 36 37 38 38 39 40 40 41 41 41 41 41 41 41 41 42 42 43 43
16 18 18 17 17 17 16 16 17 19 20 20 18 17 17 17 17 17 17 16 16 17 17 16 16 15 14 14 13 13 14 16 17 17 17 17 17 18 18 18 18 18 19 20 22 23 24 24 24 24 23 23 23 23 23 23 24 24 24 24 25 25 25 25 25 26 27 27 29 30 31 32 33 34 35 36 37 38 39 40 41 43 44 45 46 46 47
13 16 17 17 16 16 17 19 20 20 19 18 18 17 17 17 16 16 16 16 17 16 15 14 14 13 12 11 11 11 11 12 13 13 14 14 15 15 16 16 17 18 19 19 20 20 19 18 17 16 15 15 14 13 13 12 12 11 11 11 11 11 11 11 11 12 13 13 14 16 17 18 20 21 22 23 25 26 28 30 32 34 36 39 41 43 45
10 13 17 18 18 18 20 22 22 21 19 18 18 18 18 17 17 17 16 16 15 14 13 12 12 11 11 10 10 10 11 11 12 13 13 13 13 14 14 14 14 14 13 12 11 9 7 6 4 2 1 0 1 2 3 4 5 6 7 7 8 8 9 9 9 10 10 10 10 11 11 11 12 12 13 14 15 16 17 19 20 22 24 27 29 32 35
14 14 17 19 19 20 22 24 25 25 22 19 18 18 18 17 17 17 16 15 14 13 12 11 10 10 10 10 10 10 10 10 10 10 10 10 9 9 8 7 6 5 4 5 6 7 8 9 9 10 11 11 11 11 11 12 12 12 12 12 12 12 12 13 13 13 13 13 13 14 14 14 15 15 16 16 17 17 18 19 19 20 21 22 23 24 26
22 20 20 20 19 20 21 22 22 23 21 19 18 18 17 17 16 16 15 14 13 12 11 10 10 10 9 9 8 8 8 8 8 8 8 8 9 10 10 11 12 12 13 13 13 13 13 13 13 13 12 12 11 11 11 11 11 11 11 11 11 11 11 11 11 12 12 12 13 13 14 14 15 16 17 17 18 19 20 21 22 22 23 24 25 25 25
23 22 21 19 18 19 20 20 20 20 19 18 18 18 17 16 16 15 14 14 13 12 12 11 11 11 11 12 13 13 14 14 15 15 15 16 16 16 16 15 15 14 14 13 13 12 12 11 11 10 10 9 9 9 8 8 8 9 9 9 9 10 10 10 11 11 12 12 13 14 14 15 16 16 17 18 19 20 21 22 23 24 25 26 27 28 29
20 20 19 17 17 18 19 20 20 20 20 19 19 18 18 17 17 16 16 16 16 17 18 18 19 19 19 19 19 19 18 18 17 17 16 16 15 14 14 13 13 12 11 11 10 10 9 9 8 8 8 7 7 7 7 7 7 7 8 8 9 9 10 10 11 12 12 13 13 14 15 15 16 17 18 19 20 21 22 23 25 26 27 28 29 30 31
19 19 18 16 16 16 18 20 21 21 21 21 21 21 21 21 22 22 23 23 23 23 23 23 23 22 21 20 19 18 17 16 15 15 14 13 13 12 12 11 11 10 9 9 9 8 8 7 7 6 6 6 5 5 5 5 5 5 6 6 7 8 9 10 10 11 12 13 14 14 15 16 17 18 19 19 20 21 22 24 25 26 27 29 30 31 32
18 19 19 17 17 18 19 21 22 23 24 25 26 26 27 27 27 26 26 25 24 23 23 22 22 21 20 19 18 17 16 15 14 13 13 12 11 11 11 10 9 9 8 7 7 6 6 5 4 4 3 3 3 3 3 4 4 5 5 6 7 7 8 9 10 11 12 13 14 15 16 16 17 18 19 20 21 22 23 24 25 26 28 29 30 31 33
18 19 20 20 20 21 23 25 26 28 29 29 29 29 28 27 26 25 24 23 22 22 21 21 20 19 18 17 16 15 14 13 13 12 12 11 10 10 9 8 7 7 6 5 4 4 3 2 2 2 2 2 3 3 4 5 6 6 7 7 8 9 9 10 11 12 13 13 14 15 16 17 18 19 20 21 22 22 23 24 26 27 28 29 30 32 33
21 22 22 23 25 26 28 29 30 30 29 29 28 27 26 25 24 23 23 22 21 21 20 19 18 17 16 15 15 14 13 12 11 10 10 9 8 7 6 5 4 3 2 2 1 1 2 2 3 4 4 5 6 6 7 8 8 9 9 10 10 11 11 12 12 13 14 14 15 16 17 18 18 19 20 21 22 23 24 25 26 27 28 30 31 32 33
23 25 26 28 29 30 30 30 29 27 26 26 25 24 24 23 22 22 21 20 20 19 18 17 16 15 15 14 13 12 11 10 9 8 7 6 5 4 3 2 1 1 2 2 3 4 5 6 7 7 8 8 9 10 10 11 11 12 12 13 13 13 14 14 14 14 15 16 16 17 18 19 19 20 21 22 23 24 25 26 27 28 29 30 31 32 34
26 27 28 29 30 29 28 27 26 25 24 23 22 21 21 20 20 20 19 19 18 17 17 16 15 13 12 11 10 9 8 7 6 5 4 3 2 1 0 1 2 3 4 5 5 6 7 8 9 9 10 11 11 12 12 13 13 14 14 15 15 15 15 15 15 16 16 17 17 18 19 20 20 21 22 23 23 24 25 26 28 29 30 31 32 33 34
26 27 27 27 27 26 25 24 23 22 22 21 20 19 18 18 18 18 18 18 17 16 15 14 13 12 11 10 8 7 7 6 5 4 3 2 1 1 1 2 3 4 5 6 7 8 8 9 10 11 11 12 13 13 14 14 15 15 15 15 16 16 16 16 16 16 17 17 18 19 20 21 21 22 23 24 24 25 26 27 28 29 30 31 32 33 34
24 24 24 24 24 23 22 22 21 20 20 19 19 18 17 17 17 17 17 16 16 15 13 12 12 11 9 8 7 6 6 5 4 3 2 1 2 2 3 4 5 6 7 8 8 9 10 10 11 11 12 13 14 15 15 16 16 16 16 16 16 16 16 16 17 17 18 18 19 20 21 22 23 23 24 25 26 26 27 28 28 29 31 32 33 34 35
21 22 22 21 21 21 20 20 19 19 18 17 17 16 16 16 16 16 16 15 14 13 12 11 10 9 8 7 6 6 5 4 3 2 1 2 3 5 6 7 7 8 9 9 10 11 11 12 13 13 14 14 15 16 16 17 17 16 16 17 17 17 17 17 18 18 19 19 20 21 22 23 24 25 25 26 27 27 28 29 30 30 32 33 34 35 35
19 20 20 19 19 19 19 18 18 17 16 15 15 15 15 15 15 15 15 15 14 13 11 10 9 8 8 7 6 5 4 2 1 1 2 3 5 6 8 9 9 10 11 12 13 14 14 15 15 15 16 16 17 18 18 18 18 18 17 18 18 18 19 19 19 20 20 21 22 23 24 25 26 26 27 27 28 28 29 30 30 31 32 33 34 35 36
18 19 19 19 19 18 18 18 17 16 15 14 14 14 14 14 15 14 14 14 13 12 11 9 8 8 7 6 5 4 3 3 3 4 5 6 7 8 9 10 11 12 13 14 15 16 17 17 17 18 18 18 19 19 20 20 20 19 19 19 20 20 21 21 21 22 22 23 24 25 26 27 28 28 29 29 29 29 30 30 31 32 33 34 35 35 36
17 18 18 19 19 19 19 18 17 17 15 14 13 13 14 14 15 14 14 13 13 11 10 9 8 7 7 6 5 5 5 5 5 6 7 8 9 10 11 12 13 14 15 16 17 18 18 19 19 19 20 20 20 21 22 22 22 21 21 21 22 22 23 23 23 24 24 25 25 26 27 28 29 30 30 31 31 31 31 31 31 32 33 34 35 36 36
17 17 18 19 19 20 19 19 18 17 16 14 13 14 14 15 15 14 14 13 12 12 11 10 9 8 7 7 7 7 7 8 8 9 10 11 12 13 14 14 15 16 17 17 18 19 20 20 21 21 21 21 21 22 23 24 24 24 24 24 24 24 25 25 25 26 26 27 28 28 29 30 31 32 32 32 32 32 32 32 32 32 33 34 35 36 36
18 17 18 18 19 19 19 19 19 18 16 15 15 15 15 15 15 14 13 13 12 11 11 10 9 8 8 8 8 8 9 10 11 12 12 13 14 15 16 16 17 18 18 19 20 20 21 22 22 22 23 23 23 24 24 25 25 26 26 26 27 27 27 27 27 28 28 29 30 30 31 32 33 33 33 33 33 33 33 33 32 33 33 34 35 35 36
19 18 18 18 18 19 19 19 19 18 17 16 16 15 15 15 15 14 13 13 12 12 11 10 10 9 9 10 10 11 12 12 13 14 14 15 16 17 18 18 18 19 20 20 21 22 22 23 23 24 24 24 24 25 25 26 27 27 28 28 29 29 29 29 30 30 30 31 32 32 33 33 34 34 34 35 34 34 34 34 33 33 34 34 35 36 36
19 19 18 18 18 18 18 18 18 18 17 17 16 16 16 16 15 15 14 13 13 12 11 11 11 11 12 12 13 13 14 14 15 15 16 17 18 18 19 19 19 20 21 22 22 23 23 24 24 24 25 25 26 26 27 27 28 29 29 30 30 31 31 32 32 32 32 33 33 34 34 34 35 35 36 36 36 36 35 35 35 34 34 35 36 36 37
Wind_Direction
201 200 201 202 203 206 206 205 207 209 213 217 217 216 217 218 219 223 227 229 230 232 233 232 230 230 229 227 227 225 221 222 223 224 225 227 229 231 234 235 236 237 238 239 241 242 243 247 251 256 261 266 270 274 278 281 285 290 294 298 303 307 310 313 317 321 325 326 325 324 321 312 301 286 268 256 249 244 244 245 241 235 237 241 240 239 240
208 207 206 205 205 206 207 207 208 211 214 217 220 222 223 223 223 224 227 231 231 231 232 230 227 227 226 225 225 223 220 221 221 221 223 226 228 230 232 232 234 237 238 238 239 241 243 247 251 255 259 263 267 272 277 283 287 290 292 293 298 305 310 313 315 320 323 322 319 319 317 310 301 292 282 272 261 252 247 242 236 235 240 245 244 243 243
208 210 210 209 209 209 210 210 210 211 215 218 221 223 226 228 229 229 230 233 233 232 231 230 229 228 227 226 225 223 221 221 222 223 225 228 230 232 233 233 234 237 238 238 238 239 242 246 250 253 257 261 266 272 278 283 285 287 288 288 293 301 306 309 313 317 319 318 317 317 317 314 306 294 284 276 266 257 250 242 237 237 240 242 242 243 244
207 210 210 210 211 211 211 213 213 214 216 219 221 222 224 227 230 230 231 233 234 233 232 232 232 231 229 228 227 225 223 223 224 226 229 231 233 235 236 235 234 237 239 239 240 240 241 246 249 251 254 259 266 272 277 281 283 284 285 286 290 295 298 302 308 312 314 314 314 315 316 315 310 300 289 280 272 265 257 247 241 239 240 239 239 241 243
204 208 210 210 211 212 213 213 214 215 217 219 221 222 224 226 227 229 231 233 233 231 232 233 232 230 229 229 230 229 227 226 228 231 233 234 234 236 238 237 236 238 241 243 244 243 243 246 248 250 254 260 266 272 276 278 280 282 283 285 288 290 291 295 299 304 308 309 310 314 314 313 310 303 295 287 279 272 264 253 246 243 241 240 240 242 244
204 206 208 211 214 215 215 215 215 216 218 220 222 224 226 228 229 231 234 236 233 232 235 235 231 229 230 231 232 232 231 230 231 235 237 236 235 236 238 238 238 241 244 247 247 246 246 247 249 251 255 261 267 271 274 276 277 278 280 283 286 287 288 291 294 298 300 301 305 309 310 311 310 304 301 298 286 274 267 257 249 246 243 242 242 241 240
204 206 208 212 215 217 217 218 219 220 221 222 223 225 227 229 230 233 235 236 237 238 238 237 234 233 234 236 236 235 234 233 233 237 239 237 236 237 238 239 241 243 246 249 250 248 247 248 250 252 256 262 266 268 270 272 273 274 277 279 281 284 286 288 290 294 296 297 299 304 305 307 311 308 309 315 306 285 274 262 251 248 246 243 240 236 231
203 206 210 214 215 216 217 218 220 222 223 224 225 226 228 230 232 235 235 236 239 240 237 236 239 240 241 242 240 236 235 235 236 239 240 238 237 238 238 239 241 242 244 248 250 250 249 248 250 252 256 261 263 263 265 268 269 271 274 276 277 280 282 284 287 289 293 295 296 300 302 303 308 311 314 319 320 308 287 266 253 250 246 239 234 229 226
204 207 211 213 213 215 216 218 220 222 223 225 226 227 230 231 233 235 236 237 239 241 239 237 240 244 244 243 241 236 233 235 238 241 242 240 238 238 237 238 242 243 244 247 252 252 250 248 250 253 256 259 261 261 262 264 265 267 271 274 277 278 279 281 284 285 287 291 293 296 299 301 305 309 313 315 315 313 301 271 252 249 246 237 232 230 229
204 206 208 210 211 212 214 217 221 223 225 226 227 228 230 231 232 234 236 237 238 239 239 238 240 243 243 242 242 239 235 235 239 243 244 242 239 237 237 238 242 244 245 248 252 252 249 247 248 251 255 258 260 260 259 260 261 262 266 271 275 279 280 281 284 286 287 289 290 291 293 297 301 305 309 313 311 311 311 290 258 249 247 242 238 236 235
207 208 210 211 211 211 213 217 221 224 226 228 228 228 229 230 230 232 233 233 234 234 234 236 238 240 241 241 241 239 237 237 241 244 246 244 240 236 236 239 242 245 246 248 251 252 249 247 248 250 254 258 261 260 258 258 258 258 262 266 271 276 281 283 286 289 291 292 291 290 289 291 295 297 302 308 309 308 308 305 286 262 250 244 240 237 237
214 216 218 220 218 216 217 220 223 227 229 231 231 231 231 231 231 232 231 230 229 230 231 232 234 237 238 238 239 241 240 239 241 244 247 247 242 236 236 240 243 245 246 247 250 252 251 249 249 250 253 257 260 259 257 256 257 258 260 264 268 272 276 280 285 289 292 292 292 291 289 288 289 291 293 298 302 305 303 302 303 290 267 252 244 241 240
221 222 225 227 227 226 226 227 228 230 231 231 232 233 233 233 233 233 232 230 229 229 230 232 234 236 237 235 236 241 241 238 239 242 245 248 244 236 235 240 243 245 246 248 250 252 252 251 249 248 251 255 257 256 256 256 257 259 262 265 269 271 273 276 280 284 288 290 290 290 290 288 287 287 289 291 294 299 301 299 298 299 292 272 255 245 243
224 226 228 230 232 232 231 231 231 231 230 229 230 231 232 231 231 232 232 232 232 233 234 236 236 236 237 234 233 238 240 236 235 237 240 245 244 238 237 241 245 246 246 247 249 251 251 251 249 248 249 253 254 255 257 259 261 264 267 270 273 274 273 274 276 280 283 286 287 288 289 289 289 287 287 289 290 291 294 296 294 293 296 293 279 262 253
225 226 228 229 230 230 230 229 229 230 229 229 229 230 230 230 230 230 231 232 233 234 235 236 235 235 236 235 233 236 236 233 232 233 235 239 242 240 240 243 246 247 247 247 247 249 249 248 247 247 247 249 252 255 259 263 267 270 272 274 275 275 275 274 274 276 279 281 283 285 286 287 289 289 288 288 289 290 289 289 290 289 289 290 288 283 276
227 227 227 227 226 227 227 226 227 228 229 229 229 230 230 230 230 230 230 231 232 233 233 234 233 232 233 234 233 232 231 231 231 232 233 236 240 243 245 247 250 252 251 250 252 252 248 245 244 245 247 249 252 255 260 266 270 272 274 275 275 275 275 274 273 273 274 276 278 280 282 283 285 288 289 289 290 291 290 289 288 288 287 285 282 281 279
228 228 227 226 226 227 227 227 228 229 229 230 231 231 231 231 230 230 231 231 231 231 231 231 231 231 231 232 231 230 230 231 232 234 235 238 239 240 242 246 252 257 257 258 260 256 250 247 246 246 248 251 253 255 261 266 269 270 271 272 273 274 274 274 274 273 272 273 275 276 278 280 282 283 285 287 288 288 288 287 287 286 286 285 283 281 279
228 227 227 226 226 227 228 228 229 230 231 232 233 233 232 232 231 231 232 232 231 231 231 230 230 230 229 229 229 229 230 232 233 236 238 237 235 236 241 247 253 256 254 253 252 250 248 248 248 247 249 252 254 257 262 265 266 268 269 270 272 274 275 276 276 276 274 273 273 274 275 277 279 280 282 284 286 287 285 283 282 282 283 283 281 278 275
229 228 226 225 226 227 228 229 230 231 232 233 234 235 234 233 232 232 232 233 232 232 231 231 230 230 229 229 229 229 231 232 232 233 234 234 233 236 245 252 254 252 249 247 245 245 245 246 248 252 256 259 260 261 263 265 267 269 271 271 273 275 277 279 280 280 279 277 275 274 275 276 277 279 280 282 283 284 285 284 282 278 276 276 276 275 272
230 229 228 227 228 229 230 231 232 233 234 235 236 237 237 235 234 233 233 233 234 233 232 231 230 230 229 229 230 230 232 233 232 232 236 241 242 242 246 252 253 250 248 246 246 246 247 248 252 255 259 262 264 265 267 268 270 272 274 275 277 278 280 281 282 283 283 281 279 277 276 275 276 277 278 280 280 281 281 283 282 278 270 265 265 267 269
230 229 230 230 231 232 234 235 236 237 237 237 237 237 238 237 236 234 233 233 233 233 232 231 230 230 230 230 230 231 233 234 235 236 240 245 249 249 250 253 253 252 252 252 252 252 253 255 257 260 263 266 269 271 273 274 275 276 277 279 281 282 282 283 283 284 284 283 282 281 279 277 276 275 275 276 277 278 278 278 279 278 275 269 264 263 264
230 230 232 233 234 235 237 238 239 240 239 238 237 237 237 237 236 235 233 232 231 231 232 231 230 230 231 231 231 232 233 235 237 239 241 245 249 251 251 251 252 252 254 254 254 256 258 260 263 266 269 272 273 275 277 278 279 279 280 281 282 284 284 285 284 284 284 283 283 283 282 281 280 278 276 274 273 273 274 274 275 276 276 275 271 267 263
231 232 234 236 237 238 238 239 239 240 239 238 237 236 235 235 234 234 233 232 231 231 231 230 230 230 230 231 231 232 233 235 237 239 240 241 243 242 242 245 248 251 253 255 257 260 262 264 267 269 271 274 276 278 280 281 282 282 281 281 282 283 283 284 284 284 283 283 282 281 281 281 280 279 278 277 275 273 272 271 271 272 271 271 269 267 262
230 231 233 235 236 237 237 237 237 237 237 237 236 235 234 233 233 233 232 230 229 230 231 229 228 228 229 230 231 232 233 234 236 238 237 236 236 238 241 243 246 250 253 256 256 258 260 263 266 270 274 278 281 282 282 282 282 282 282 281 281 281 281 280 280 281 281 281 280 279 278 278 277 276 276 276 276 276 273 271 269 268 267 266 266 264 260
224 226 228 230 231 233 234 235 236 236 234 233 232 232 231 230 230 230 229 226 225 226 227 226 225 226 228 229 230 232 234 236 237 239 239 238 241 247 251 251 249 249 250 251 253 259 266 271 273 276 278 281 282 282 281 280 279 279 279 279 279 279 279 278 278 277 276 276 276 276 275 275 275 276 276 275 275 274 272 270 268 266 264 263 262 262 260
217 220 223 225 226 228 229 229 229 230 229 228 226 225 224 223 223 223 222 219 219 220 222 223 225 226 228 230 231 233 235 237 239 240 241 242 245 249 254 255 254 253 253 255 260 268 274 276 276 276 276 277 277 278 277 277 277 277 277 277 277 277 277 277 277 277 276 276 275 274 274 274 274 274 273 273 272 272 270 267 265 263 261 259 258 257 258
211 213 215 216 216 216 215 213 213 216 218 216 213 211 211 211 212 214 214 214 215 218 219 221 221 222 225 229 230 231 232 234 236 237 239 241 244 247 250 253 254 254 254 257 261 266 269 271 271 272 272 273 274 274 275 276 276 276 277 277 277 277 276 276 277 277 277 278 277 277 276 276 276 276 276 275 274 273 271 269 265 261 260 259 258 258 258
204 205 205 205 203 199 197 201 205 205 203 201 200 200 202 205 207 209 211 212 213 212 213 213 213 214 218 221 222 223 224 225 225 225 226 229 234 239 244 248 250 251 251 253 257 262 265 268 269 270 271 272 273 274 276 277 277 278 279 279 279 278 278 278 278 278 278 278 278 278 278 278 278 278 278 278 277 276 275 274 272 269 267 265 264 263 263
189 191 191 191 192 193 195 199 200 196 192 193 195 194 193 195 199 201 201 200 199 199 201 203 204 205 206 208 211 214 214 215 216 220 224 228 233 239 244 249 251 251 250 253 258 263 267 269 271 273 274 276 277 279 279 280 281 282 282 282 282 282 282 282 281 281 280 280 279 279 279 278 278 277 277 277 277 276 276 275 274 274 273 272 271 270 269
178 179 177 180 188 194 193 189 186 185 186 190 193 191 187 186 189 191 190 188 187 189 192 192 192 192 193 193 195 197 201 207 214 222 228 232 237 242 247 251 255 257 259 262 265 268 271 274 276 278 279 281 282 283 284 284 285 285 285 286 286 287 287 287 287 287 286 285 285 284 284 283 283 282 281 281 280 279 278 277 276 275 274 273 273 273 272
171 171 170 174 182 184 181 177 175 178 183 187 188 187 187 185 183 182 182 183 184 184 184 183 182 185 188 189 191 194 199 206 214 223 230 236 242 247 252 257 261 264 266 268 270 272 274 276 278 280 282 283 284 285 287 288 289 292 295 298 300 303 307 308 308 308 308 307 305 303 301 300 299 298 297 295 294 291 289 287 285 282 280 278 277 275 274
160 172 174 174 171 164 162 164 165 167 172 177 176 176 178 177 174 172 172 174 176 177 178 180 183 188 195 200 204 209 213 218 223 229 236 242 247 251 255 258 261 263 263 264 265 266 268 271 274 277 287 17 64 68 68 67 64 60 56 54 52 49 46 43 39 36 32 27 21 15 9 3 357 352 346 341 335 330 324 318 311 305 300 295 290 287 284
149 165 169 165 155 149 151 155 156 158 163 167 167 167 167 168 167 167 166 166 169 173 178 182 187 193 200 205 210 214 217 221 224 227 231 233 234 234 232 227 217 201 179 156 137 124 115 109 105 101 99 95 92 89 85 82 78 74 71 67 63 59 54 50 47 43 40 36 33 29 26 22 19 15 12 8 5 1 357 352 347 341 335 327 320 313 306
147 152 154 151 146 143 146 151 153 155 158 161 161 159 159 160 162 162 161 163 168 173 177 180 184 188 191 190 188 186 184 179 175 170 164 158 151 144 138 134 130 126 122 119 116 112 109 106 103 100 96 92 89 84 79 74 69 65 60 56 51 46 41 37 33 30 26 23 19 16 13 10 8 6 4 2 360 358 357 355 353 351 349 345 341 336 331
149 150 151 151 148 145 146 150 152 152 152 153 154 152 152 154 156 157 157 161 164 164 162 161 158 154 148 142 137 135 134 134 132 131 130 128 127 126 125 123 122 121 118 116 113 111 108 104 101 97 93 88 82 75 69 62 55 49 44 39 35 30 25 21 18 15 12 10 7 4 1 359 357 356 354 353 351 349 349 348 348 347 347 346 345 343 340
148 148 150 151 149 147 147 149 149 147 146 146 146 146 146 147 147 145 144 143 141 138 135 133 130 128 126 125 125 125 126 126 126 125 125 125 124 124 123 122 120 119 117 115 111 107 104 101 97 93 88 82 75 68 60 51 44 38 33 28 23 18 14 11 8 5 3 0 357 355 353 351 350 348 347 346 345 343 342 341 341 341 341 341 341 341 340
144 146 148 151 152 149 145 143 142 140 139 138 137 136 135 133 131 130 129 128 127 127 127 126 125 125 125 125 125 126 126 126 125 125 124 125 124 124 123 121 119 117 116 114 112 108 105 102 97 91 85 78 69 60 50 39 30 23 17 13 9 6 3 1 360 358 355 353 350 348 346 345 342 341 340 340 339 337 337 336 335 335 335 335 335 336 336
146 146 148 150 150 147 143 139 137 134 132 131 130 129 127 126 125 125 126 126 126 126 127 128 128 128 129 129 129 129 128 128 127 127 127 127 127 126 124 122 120 119 117 115 112 109 105 100 93 85 75 63 48 32 16 5 357 350 347 346 346 346 346 346 346 346 346 345 344 343 341 339 337 336 334 333 333 332 331 330 330 329 329 329 329 330 331
147 145 146 147 146 144 140 136 133 131 130 129 128 127 127 127 127 127 127 128 129 130 132 132 132 132 132 131 130 129 129 129 129 129 129 128 127 125 122 120 118 115 112 109 105 100 93 83 66 40 12 351 340 333 328 327 325 324 325 326 327 329 330 331 332 333 334 336 336 336 336 336 335 333 330 329 328 327 327 326 325 325 324 324 324 325 326
143 142 143 143 140 138 135 133 132 131 131 130 130 130 130 130 130 131 132 133 134 135 135 135 135 134 133 132 131 131 131 132 131 131 129 127 125 121 117 114 111 105 97 84 50 2 336 323 318 314 312 312 312 312 313 313 313 314 315 316 316 318 319 321 322 324 326 328 329 330 331 332 332 331 328 326 325 324 323 322 322 322 321 321 321 321 322
140 140 139 138 136 134 134 133 132 132 132 132 133 133 134 134 135 136 137 137 138 139 139 138 138 137 136 134 134 134 133 132 131 130 127 125 124 119 114 108 88 9 330 318 314 310 309 307 307 307 308 308 309 309 309 309 309 309 309 309 310 311 313 314 316 318 320 322 324 326 327 329 329 328 327 325 323 322 321 320 320 319 319 319 319 319 320
136 137 137 136 136 135 135 135 135 135 135 135 136 136 138 139 140 142 142 143 143 143 143 142 142 141 139 138 137 135 133 131 129 127 126 125 124 122 101 342 328 324 319 316 315 313 314 313 313 314 314 314 314 314 313 311 311 310 310 309 310 310 311 312 313 314 316 319 321 323 325 326 326 326 325 324 323 321 320 319 318 318 318 318 318 318 319
136 137 138 138 138 138 139 139 139 139 140 141 141 142 144 145 147 148 148 148 147 146 146 146 145 143 142 141 139 137 135 132 128 125 124 118 101 38 344 335 331 327 324 322 320 319 319 320 321 322 322 322 321 320 318 317 315 314 313 312 312 312 312 312 313 314 316 318 320 322 323 325 325 325 324 323 322 321 320 318 317 316 316 316 317 317 318
141 142 143 143 144 145 145 146 146 147 148 149 149 149 150 151 153 153 153 152 152 151 151 150 149 146 145 144 142 139 137 133 129 122 108 70 18 354 343 339 335 332 330 328 325 323 323 323 323 324 325 326 326 325 323 321 319 317 317 316 315 315 315 316 316 317 317 318 320 321 323 325 326 326 325 323 322 321 319 318 317 316 316 316 316 316 317
149 150 151 152 152 153 153 154 154 155 156 156 156 156 156 156 157 158 158 158 158 157 156 156 154 152 150 148 147 145 142 138 133 111 41 359 345 341 340 338 336 335 334 332 329 328 326 324 323 322 323 324 325 326 325 324 322 320 319 319 319 319 319 319 319 320 320 320 321 323 325 326 327 327 325 323 322 320 319 318 316 316 315 315 315 316 317
161 162 162 163 162 162 161 162 161 160 160 161 161 162 162 162 163 163 164 164 164 164 164 164 163 160 159 159 158 158 158 161 175 300 323 323 323 325 326 326 326 327 328 327 326 327 326 325 323 322 320 320 322 323 324 324 323 322 320 320 320 321 321 321 322 322 322 323 323 324 325 326 327 327 326 324 322 320 318 317 316 315 315 315 315 316 316
174 175 174 174 174 173 172 171 169 168 167 167 167 168 169 169 169 170 171 171 172 172 173 174 174 173 174 175 180 188 205 229 258 283 294 299 303 308 311 313 314 316 318 319 320 321 322 322 322 322 320 319 319 320 322 322 322 321 320 320 320 321 321 321 322 322 322 323 323 324 324 325 326 326 325 324 322 320 318 317 316 315 315 315 315 315 316
182 183 183 183 184 184 184 182 181 180 179 178 177 176 176 176 176 176 177 178 180 182 185 188 190 191 193 199 210 225 242 258 271 280 286 290 295 299 301 303 306 308 310 311 313 314 316 317 318 319 318 318 317 318 319 320 320 320 319 319 319 320 320 320 321 321 321 322 322 323 323 323 324 324 324 323 322 321 319 317 316 315 315 315 315 315 315
186 187 187 188 189 190 191 191 190 189 189 188 186 184 183 182 183 184 185 187 189 192 196 199 202 205 211 220 232 244 256 266 274 279 283 288 293 296 299 301 303 305 306 308 309 310 312 313 315 316 316 316 315 316 317 317 318 318 318 318 318 319 319 319 319 319 320 320 321 321 322 322 322 322 322 322 322 321 319 317 316 315 315 315 315 315 315
188 189 190 191 192 192 193 194 194 194 195 195 194 191 190 190 190 192 193 195 197 200 204 208 212 219 227 237 246 254 261 267 273 278 284 289 294 298 300 302 303 304 306 307 308 309 310 311 312 313 314 314 314 314 315 316 316 317 317 318 317 317 317 317 317 318 318 318 319 319 319 320 320 320 320 320 320 320 319 318 316 315 315 315 315 314 314
192 192 193 194 194 195 195 196 196 197 198 198 198 196 196 196 197 198 200 202 206 209 213 218 225 232 239 247 254 260 265 270 275 280 286 292 297 300 301 303 304 305 306 307 308 308 309 310 310 311 312 312 312 313 314 314 315 316 316 316 316 315 315 315 315 315 316 316 316 316 317 317 317 318 318 318 319 319 319 318 316 316 315 315 315 315 314
197 197 196 197 198 198 198 199 199 200 201 201 201 201 201 203 205 207 209 212 216 219 224 230 237 243 249 256 261 266 270 274 278 281 287 292 297 299 301 303 304 306 307 307 308 308 308 308 309 309 310 310 311 312 313 313 314 314 314 314 313 313 313 313 313 313 314 314 314 314 314 315 315 315 316 317 317 318 318 317 316 315 315 316 315 315 315
Height
5662 5665 5668 5671 5674 5677 5681 5684 5686 5689 5692 5694 5696 5699 5701 5704 5706 5708 5709 5710 5712 5714 5716 5717 5719 5721 5722 5724 5725 5727 5729 5730 5732 5733 5734 5735 5737 5738 5739 5740 5741 5741 5742 5743 5743 5744 5745 5745 5745 5745 5745 5745 5745 5745 5744 5744 5743 5742 5742 5741 5741 5740 5738 5736 5735 5734 5732 5730 5729 5728 5726 5726 5725 5725 5726 5726 5727 5729 5730 5731 5732 5733 5733 5735 5736 5737 5737
5661 5664 5667 5670 5673 5675 5678 5681 5684 5687 5690 5692 5694 5697 5699 5701 5704 5705 5706 5708 5710 5712 5714 5715 5717 5718 5720 5722 5723 5725 5727 5728 5729 5731 5732 5733 5734 5735 5736 5737 5737 5738 5739 5740 5740 5741 5742 5742 5742 5743 5743 5743 5743 5743 5742 5742 5741 5740 5740 5739 5739 5738 5737 5735 5734 5733 5732 5730 5728 5727 5726 5725 5724 5724 5725 5726 5726 5726 5727 5728 5729 5730 5730 5731 5733 5734 5734
5660 5663 5665 5668 5671 5674 5676 5679 5682 5685 5687 5690 5692 5695 5697 5699 5701 5702 5704 5706 5708 5710 5712 5713 5715 5716 5718 5719 5721 5723 5724 5726 5727 5728 5729 5730 5731 5732 5733 5733 5734 5735 5736 5737 5737 5738 5739 5739 5740 5740 5740 5740 5740 5740 5740 5740 5739 5738 5738 5738 5737 5736 5735 5734 5733 5732 5731 5729 5728 5726 5725 5724 5724 5723 5723 5723 5723 5723 5724 5724 5725 5726 5726 5728 5730 5730 5731
5659 5661 5664 5667 5669 5672 5675 5677 5680 5682 5685 5687 5690 5692 5694 5696 5698 5700 5702 5704 5706 5708 5709 5711 5712 5714 5715 5717 5718 5720 5722 5723 5724 5725 5726 5727 5728 5729 5730 5730 5731 5732 5733 5734 5734 5735 5736 5737 5737 5737 5738 5738 5738 5738 5738 5738 5737 5737 5736 5736 5735 5734 5733 5732 5732 5731 5730 5728 5727 5726 5725 5724 5723 5722 5721 5721 5721 5721 5721 5721 5721 5722 5724 5725 5726 5727 5728
5657 5660 5662 5665 5668 5670 5672 5674 5677 5680 5683 5685 5688 5690 5692 5694 5696 5697 5699 5701 5703 5705 5707 5708 5710 5711 5713 5714 5715 5717 5718 5720 5721 5722 5723 5724 5725 5726 5727 5727 5728 5729 5730 5731 5731 5732 5733 5734 5734 5735 5736 5736 5736 5736 5736 5736 5735 5735 5734 5734 5733 5732 5731 5730 5730 5729 5729 5727 5726 5725 5724 5723 5722 5720 5719 5719 5719 5718 5718 5718 5718 5719 5721 5722 5723 5724 5726
5656 5658 5661 5663 5665 5667 5669 5672 5675 5678 5680 5683 5685 5687 5689 5691 5693 5695 5697 5699 5701 5702 5704 5706 5707 5709 5710 5711 5712 5714 5715 5717 5718 5719 5720 5721 5722 5723 5723 5724 5726 5727 5727 5728 5728 5729 5730 5731 5732 5732 5733 5733 5733 5734 5734 5733 5733 5732 5732 5731 5731 5731 5730 5729 5728 5728 5727 5726 5725 5724 5723 5722 5720 5719 5718 5717 5717 5716 5716 5716 5716 5717 5718 5719 5721 5722 5723
5655 5657 5659 5661 5663 5665 5668 5671 5673 5676 5678 5681 5683 5685 5687 5689 5691 5693 5695 5696 5698 5700 5701 5703 5705 5706 5707 5708 5710 5711 5712 5713 5715 5716 5717 5718 5719 5719 5720 5722 5723 5723 5724 5725 5726 5726 5727 5728 5729 5729 5730 5730 5731 5731 5731 5731 5730 5730 5729 5729 5729 5729 5728 5727 5727 5726 5726 5725 5724 5723 5721 5720 5719 5718 5717 5716 5715 5715 5715 5715 5715 5715 5716 5717 5718 5720 5721
5653 5655 5657 5659 5662 5664 5667 5669 5671 5673 5676 5678 5680 5682 5684 5686 5688 5690 5692 5693 5695 5697 5698 5700 5701 5703 5704 5705 5706 5708 5709 5710 5712 5713 5714 5715 5716 5716 5718 5719 5720 5720 5721 5722 5723 5723 5724 5725 5726 5726 5727 5727 5728 5728 5728 5728 5728 5728 5727 5727 5727 5727 5727 5726 5725 5725 5724 5724 5723 5721 5720 5719 5718 5717 5716 5715 5714 5714 5714 5714 5714 5714 5715 5715 5716 5717 5719
5652 5654 5656 5658 5661 5663 5665 5666 5669 5671 5673 5675 5677 5679 5681 5683 5685 5686 5688 5690 5691 5693 5695 5697 5698 5699 5701 5702 5703 5705 5706 5707 5708 5709 5710 5711 5712 5713 5715 5716 5717 5717 5718 5719 5720 5720 5721 5722 5722 5723 5724 5724 5724 5725 5725 5725 5725 5725 5725 5724 5724 5725 5725 5724 5724 5723 5723 5722 5721 5720 5719 5717 5716 5715 5715 5714 5713 5713 5712 5712 5713 5713 5713 5714 5714 5715 5717
5651 5653 5655 5657 5658 5660 5662 5664 5666 5667 5670 5672 5674 5676 5678 5680 5681 5683 5685 5687 5688 5690 5692 5693 5695 5696 5697 5699 5700 5702 5703 5704 5705 5706 5707 5708 5709 5710 5711 5713 5713 5714 5715 5716 5716 5717 5718 5718 5719 5720 5720 5721 5721 5722 5722 5722 5723 5723 5723 5722 5722 5722 5722 5722 5722 5721 5721 5721 5720 5719 5718 5717 5715 5714 5713 5713 5712 5712 5711 5711 5711 5711 5712 5713 5713 5713 5714
5649 5651 5653 5655 5656 5658 5660 5661 5663 5665 5667 5669 5671 5673 5674 5676 5678 5680 5681 5683 5685 5687 5688 5690 5691 5693 5694 5696 5697 5698 5700 5701 5702 5703 5704 5705 5706 5707 5708 5709 5710 5711 5712 5712 5713 5714 5714 5715 5716 5716 5717 5717 5718 5718 5719 5719 5719 5720 5720 5720 5720 5719 5719 5719 5719 5719 5719 5718 5718 5717 5716 5716 5715 5714 5713 5712 5711 5710 5710 5710 5710 5710 5711 5711 5711 5711 5712
5647 5649 5651 5652 5654 5656 5658 5659 5661 5663 5664 5666 5668 5669 5671 5673 5675 5676 5678 5680 5682 5684 5685 5687 5688 5690 5691 5693 5694 5695 5696 5697 5699 5700 5701 5701 5702 5704 5705 5706 5707 5708 5708 5709 5710 5710 5711 5712 5712 5713 5713 5714 5715 5715 5715 5715 5716 5716 5717 5717 5717 5717 5717 5716 5716 5716 5716 5716 5715 5715 5714 5714 5713 5713 5712 5711 5710 5710 5709 5709 5709 5709 5709 5709 5709 5709 5710
5645 5646 5648 5649 5651 5653 5655 5657 5659 5660 5661 5663 5664 5665 5668 5670 5672 5673 5675 5677 5679 5681 5682 5684 5685 5687 5688 5689 5690 5691 5692 5694 5695 5697 5697 5698 5699 5700 5702 5703 5703 5704 5705 5705 5706 5707 5708 5708 5709 5709 5710 5711 5711 5712 5712 5712 5713 5713 5714 5714 5714 5715 5714 5714 5714 5714 5713 5713 5712 5712 5712 5712 5711 5711 5710 5710 5709 5708 5708 5708 5707 5707 5707 5707 5707 5707 5708
5642 5643 5645 5646 5648 5650 5652 5654 5655 5656 5658 5659 5661 5662 5665 5667 5668 5670 5671 5673 5675 5677 5679 5680 5682 5683 5684 5686 5687 5687 5688 5690 5692 5693 5694 5695 5696 5697 5699 5699 5700 5700 5701 5702 5702 5703 5704 5705 5705 5706 5707 5707 5708 5709 5709 5709 5710 5710 5710 5711 5711 5711 5711 5712 5712 5711 5711 5710 5710 5709 5709 5709 5709 5708 5708 5708 5707 5707 5707 5707 5706 5706 5705 5705 5705 5705 5705
5639 5640 5642 5644 5645 5647 5649 5650 5651 5652 5654 5656 5658 5660 5661 5663 5665 5666 5668 5670 5672 5673 5675 5677 5679 5680 5681 5682 5684 5684 5685 5687 5688 5690 5691 5692 5693 5694 5695 5695 5696 5696 5697 5698 5698 5699 5700 5700 5702 5702 5703 5704 5705 5706 5706 5706 5707 5707 5707 5707 5707 5708 5708 5708 5708 5709 5708 5708 5707 5707 5706 5706 5706 5705 5705 5705 5705 5705 5705 5705 5704 5704 5704 5703 5703 5703 5703
5635 5637 5639 5641 5642 5644 5645 5647 5648 5649 5651 5653 5655 5656 5658 5660 5662 5663 5665 5667 5668 5670 5672 5674 5675 5677 5678 5679 5680 5682 5683 5684 5685 5686 5687 5689 5690 5691 5692 5691 5692 5693 5694 5694 5695 5695 5696 5697 5698 5699 5700 5701 5702 5703 5703 5703 5703 5703 5703 5703 5704 5704 5704 5704 5705 5705 5705 5705 5705 5704 5704 5703 5703 5702 5702 5702 5701 5701 5702 5702 5702 5702 5702 5702 5701 5701 5701
5632 5634 5636 5638 5639 5640 5642 5644 5645 5646 5648 5650 5651 5653 5655 5657 5658 5660 5662 5663 5665 5667 5669 5670 5672 5673 5675 5676 5677 5678 5680 5681 5682 5683 5685 5686 5687 5688 5688 5688 5689 5690 5691 5691 5692 5692 5693 5694 5695 5696 5697 5698 5699 5700 5700 5700 5700 5700 5700 5700 5700 5700 5700 5701 5701 5702 5702 5702 5702 5701 5701 5701 5700 5700 5699 5699 5698 5698 5699 5699 5699 5699 5699 5699 5699 5699 5699
5628 5630 5632 5634 5636 5637 5639 5640 5642 5644 5645 5647 5648 5650 5652 5654 5655 5657 5658 5660 5662 5664 5665 5667 5669 5670 5671 5673 5674 5675 5677 5678 5679 5681 5682 5683 5684 5684 5683 5684 5686 5687 5688 5689 5689 5690 5691 5692 5693 5694 5695 5695 5696 5697 5697 5697 5697 5697 5697 5697 5697 5697 5697 5697 5698 5698 5698 5699 5699 5698 5698 5698 5697 5697 5697 5696 5696 5695 5695 5696 5696 5696 5695 5695 5695 5695 5696
5625 5627 5629 5631 5633 5634 5636 5637 5639 5641 5642 5644 5645 5647 5649 5651 5652 5654 5655 5657 5658 5660 5662 5664 5665 5667 5668 5670 5671 5672 5674 5675 5677 5678 5679 5680 5681 5681 5681 5682 5683 5684 5685 5686 5687 5688 5688 5689 5690 5691 5692 5692 5693 5694 5694 5694 5694 5694 5693 5694 5694 5694 5694 5694 5694 5694 5694 5695 5695 5695 5695 5694 5694 5694 5693 5693 5693 5693 5692 5692 5693 5693 5693 5692 5692 5692 5692
5622 5624 5626 5628 5630 5631 5633 5635 5636 5638 5640 5641 5643 5644 5645 5647 5649 5650 5652 5654 5655 5657 5659 5660 5662 5663 5665 5666 5668 5669 5671 5672 5673 5675 5676 5677 5678 5679 5679 5679 5680 5682 5682 5683 5684 5685 5686 5686 5687 5688 5688 5689 5690 5691 5691 5691 5691 5691 5691 5690 5690 5690 5690 5691 5691 5691 5690 5690 5691 5691 5691 5691 5691 5690 5690 5690 5689 5689 5689 5689 5689 5689 5689 5689 5689 5689 5689
5619 5621 5622 5624 5626 5628 5630 5631 5633 5634 5636 5638 5639 5641 5642 5644 5645 5647 5649 5651 5652 5654 5655 5657 5659 5660 5662 5663 5665 5666 5668 5669 5670 5672 5673 5674 5675 5675 5676 5677 5678 5679 5679 5680 5681 5682 5683 5683 5684 5684 5685 5686 5686 5687 5688 5688 5688 5688 5688 5687 5687 5687 5687 5687 5687 5687 5687 5686 5686 5686 5687 5687 5687 5687 5687 5687 5686 5686 5686 5685 5685 5685 5685 5686 5686 5686 5686
5614 5616 5618 5620 5622 5624 5626 5628 5629 5631 5633 5634 5636 5637 5639 5640 5642 5644 5645 5647 5649 5651 5652 5654 5656 5657 5659 5660 5662 5663 5665 5666 5667 5669 5670 5671 5672 5673 5673 5674 5674 5676 5676 5677 5678 5679 5680 5680 5681 5681 5682 5682 5683 5683 5684 5684 5685 5685 5685 5684 5684 5684 5683 5683 5683 5683 5683 5683 5682 5682 5682 5682 5682 5682 5682 5683 5683 5682 5682 5682 5681 5681 5681 5681 5682 5682 5681
5610 5613 5615 5617 5619 5621 5623 5624 5626 5627 5629 5630 5632 5634 5635 5637 5638 5640 5641 5644 5646 5647 5649 5651 5653 5654 5656 5657 5659 5660 5661 5663 5664 5666 5667 5668 5669 5670 5670 5671 5672 5673 5673 5674 5675 5676 5677 5677 5678 5678 5679 5679 5680 5680 5680 5680 5681 5681 5681 5681 5681 5680 5680 5679 5679 5678 5679 5679 5678 5678 5678 5678 5678 5677 5677 5677 5677 5678 5678 5678 5677 5677 5677 5677 5677 5677 5677
5607 5609 5611 5613 5615 5617 5619 5620 5622 5623 5625 5626 5628 5630 5632 5633 5635 5636 5638 5641 5643 5644 5646 5648 5650 5651 5653 5654 5656 5657 5658 5660 5661 5663 5664 5665 5666 5666 5667 5668 5669 5670 5670 5671 5672 5673 5674 5674 5675 5675 5676 5676 5676 5676 5677 5676 5676 5676 5676 5676 5676 5676 5676 5675 5675 5675 5674 5674 5674 5673 5673 5673 5673 5673 5673 5672 5672 5672 5673 5673 5673 5672 5672 5672 5672 5672 5672
5603 5605 5607 5609 5611 5613 5615 5616 5618 5619 5621 5622 5624 5626 5628 5630 5632 5634 5636 5638 5639 5641 5643 5645 5647 5648 5650 5651 5653 5654 5656 5657 5659 5660 5661 5663 5663 5663 5664 5665 5666 5667 5668 5669 5669 5670 5671 5671 5671 5672 5672 5672 5672 5672 5672 5672 5672 5672 5672 5672 5671 5671 5671 5671 5671 5671 5671 5670 5670 5669 5669 5668 5668 5668 5668 5668 5668 5668 5668 5667 5667 5667 5667 5667 5667 5667 5667
5600 5602 5604 5606 5608 5610 5611 5612 5614 5615 5617 5619 5621 5623 5625 5627 5629 5631 5633 5635 5637 5639 5641 5643 5644 5646 5647 5649 5650 5652 5654 5655 5656 5658 5659 5660 5660 5661 5661 5662 5663 5664 5665 5666 5667 5667 5667 5668 5668 5668 5668 5668 5668 5668 5668 5668 5668 5668 5668 5668 5668 5668 5668 5667 5667 5667 5666 5666 5665 5665 5664 5664 5664 5664 5664 5664 5663 5663 5663 5663 5663 5663 5662 5662 5662 5662 5661
5597 5599 5601 5603 5605 5607 5609 5610 5611 5613 5614 5616 5618 5620 5623 5625 5627 5629 5631 5633 5635 5637 5639 5640 5642 5644 5645 5647 5648 5650 5651 5653 5654 5655 5656 5657 5657 5658 5659 5660 5661 5662 5662 5663 5664 5664 5665 5665 5665 5665 5665 5665 5665 5665 5665 5664 5664 5664 5664 5664 5664 5664 5664 5664 5663 5663 5662 5662 5661 5660 5660 5660 5660 5660 5659 5659 5659 5658 5658 5658 5658 5658 5657 5657 5657 5656 5656
5594 5597 5599 5601 5603 5605 5607 5608 5610 5611 5613 5614 5616 5618 5621 5623 5625 5627 5629 5631 5633 5635 5637 5639 5640 5642 5644 5645 5646 5647 5649 5650 5651 5652 5653 5654 5655 5656 5657 5657 5658 5659 5660 5661 5661 5661 5662 5662 5662 5662 5662 5662 5662 5662 5661 5661 5661 5661 5660 5660 5660 5660 5660 5660 5659 5659 5658 5657 5657 5656 5656 5656 5655 5655 5654 5654 5654 5654 5653 5653 5653 5652 5652 5651 5651 5650 5650
5593 5595 5598 5600 5602 5603 5605 5606 5608 5610 5611 5613 5615 5617 5619 5621 5623 5625 5627 5629 5631 5633 5635 5637 5639 5640 5642 5643 5644 5645 5647 5648 5649 5650 5651 5652 5653 5654 5655 5655 5656 5657 5658 5658 5658 5658 5659 5659 5659 5659 5659 5659 5658 5658 5658 5657 5657 5657 5656 5656 5656 5655 5655 5655 5654 5654 5653 5652 5652 5651 5651 5651 5650 5650 5649 5649 5648 5648 5648 5647 5647 5646 5646 5645 5645 5644 5644
5593 5595 5597 5599 5601 5602 5603 5605 5607 5609 5610 5612 5614 5616 5618 5620 5622 5624 5626 5628 5630 5632 5634 5636 5637 5639 5640 5641 5642 5644 5645 5646 5648 5649 5650 5651 5651 5652 5653 5653 5654 5655 5655 5655 5656 5656 5656 5656 5656 5656 5655 5655 5655 5654 5654 5654 5653 5653 5653 5652 5652 5651 5651 5650 5650 5649 5648 5648 5647 5647 5646 5646 5645 5645 5644 5643 5643 5642 5642 5641 5641 5640 5639 5639 5638 5637 5637
5593 5594 5596 5598 5600 5601 5603 5604 5606 5608 5610 5612 5614 5616 5618 5620 5622 5624 5626 5628 5630 5631 5633 5634 5636 5637 5639 5640 5641 5643 5644 5645 5647 5647 5648 5649 5650 5650 5651 5651 5652 5652 5652 5653 5653 5653 5653 5653 5653 5653 5652 5652 5652 5652 5651 5651 5651 5650 5650 5650 5649 5649 5648 5648 5647 5647 5646 5645 5645 5644 5643 5643 5642 5641 5640 5639 5638 5638 5637 5636 5635 5634 5633 5632 5631 5630 5629
5593 5595 5596 5598 5599 5601 5602 5604 5606 5608 5610 5612 5614 5616 5618 5620 5622 5624 5625 5627 5629 5630 5632 5634 5635 5637 5638 5639 5641 5642 5643 5644 5645 5646 5647 5647 5648 5648 5649 5649 5650 5650 5650 5650 5650 5651 5651 5651 5651 5651 5651 5651 5651 5651 5650 5650 5650 5650 5649 5649 5649 5648 5648 5647 5647 5646 5645 5645 5644 5643 5642 5641 5640 5639 5638 5637 5636 5635 5634 5632 5631 5630 5629 5627 5626 5625 5623
5594 5596 5597 5599 5600 5602 5603 5605 5607 5609 5611 5613 5615 5616 5618 5620 5622 5623 5625 5627 5628 5630 5631 5633 5635 5636 5637 5638 5640 5641 5642 5643 5644 5644 5645 5646 5646 5647 5648 5648 5648 5649 5649 5649 5649 5650 5650 5650 5650 5651 5651 5651 5651 5651 5650 5650 5650 5650 5650 5649 5649 5648 5648 5647 5647 5646 5646 5645 5644 5643 5642 5641 5640 5639 5638 5636 5635 5634 5632 5631 5629 5627 5626 5624 5622 5621 5619
5593 5596 5598 5600 5602 5603 5605 5606 5608 5610 5612 5614 5615 5617 5618 5620 5622 5623 5625 5627 5628 5630 5631 5633 5634 5635 5636 5637 5638 5640 5641 5642 5643 5643 5644 5645 5646 5647 5647 5648 5648 5649 5649 5650 5650 5650 5651 5651 5651 5651 5651 5651 5651 5651 5651 5651 5651 5650 5650 5650 5649 5649 5648 5648 5647 5646 5646 5645 5644 5643 5642 5641 5639 5638 5637 5636 5634 5633 5631 5629 5628 5626 5624 5622 5620 5618 5616
5594 5596 5599 5601 5603 5605 5606 5608 5610 5611 5613 5615 5616 5618 5619 5620 5622 5624 5625 5627 5628 5629 5631 5632 5634 5635 5636 5637 5639 5640 5641 5642 5643 5644 5645 5646 5647 5648 5648 5649 5649 5650 5650 5651 5651 5651 5652 5652 5652 5652 5652 5652 5652 5652 5651 5651 5651 5650 5650 5650 5649 5648 5648 5647 5647 5646 5645 5644 5643 5642 5641 5640 5639 5637 5636 5635 5633 5631 5630 5628 5626 5624 5622 5620 5618 5616 5613
5597 5599 5601 5603 5604 5606 5607 5609 5611 5612 5613 5615 5617 5618 5620 5621 5622 5624 5626 5627 5629 5630 5632 5633 5635 5636 5637 5639 5640 5642 5643 5644 5645 5646 5647 5647 5648 5649 5650 5650 5651 5651 5651 5652 5652 5652 5652 5652 5653 5653 5652 5652 5652 5652 5652 5651 5651 5650 5650 5649 5649 5648 5647 5647 5646 5645 5644 5643 5642 5641 5640 5639 5638 5636 5635 5633 5631 5630 5628 5626 5624 5622 5620 5618 5615 5613 5611
5599 5600 5602 5604 5606 5607 5608 5610 5611 5613 5614 5616 5618 5619 5620 5622 5624 5625 5627 5629 5630 5632 5633 5635 5637 5638 5640 5641 5642 5644 5645 5646 5646 5647 5648 5649 5649 5650 5651 5651 5651 5652 5652 5652 5653 5653 5653 5653 5653 5653 5653 5653 5652 5652 5652 5651 5651 5650 5650 5649 5649 5648 5647 5646 5645 5645 5644 5643 5641 5640 5639 5638 5636 5635 5633 5632 5630 5628 5626 5624 5622 5620 5618 5616 5613 5611 5609
5600 5601 5603 5605 5607 5608 5610 5611 5612 5614 5616 5617 5619 5620 5622 5624 5626 5628 5629 5631 5633 5634 5636 5637 5639 5640 5642 5643 5644 5645 5646 5647 5648 5648 5649 5650 5651 5651 5651 5652 5652 5653 5653 5653 5653 5653 5653 5653 5653 5653 5653 5653 5653 5652 5652 5651 5651 5650 5649 5649 5648 5647 5646 5645 5644 5643 5642 5641 5640 5639 5638 5636 5635 5633 5631 5630 5628 5626 5625 5623 5621 5618 5616 5614 5612 5609 5607
5602 5603 5605 5607 5608 5610 5611 5612 5614 5616 5617 5619 5621 5623 5625 5626 5628 5630 5632 5633 5635 5637 5638 5639 5641 5642 5643 5644 5645 5646 5647 5648 5649 5650 5650 5651 5651 5652 5652 5653 5653 5653 5653 5653 5654 5654 5654 5654 5653 5653 5653 5653 5652 5652 5651 5651 5650 5649 5649 5648 5647 5646 5645 5644 5643 5642 5641 5640 5638 5637 5636 5634 5633 5631 5629 5628 5626 5624 5622 5620 5618 5616 5614 5612 5609 5607 5604
5604 5605 5607 5608 5610 5611 5613 5615 5616 5618 5620 5622 5623 5625 5627 5629 5630 5632 5634 5635 5637 5638 5640 5641 5642 5643 5644 5645 5646 5647 5648 5649 5650 5650 5651 5652 5652 5652 5653 5653 5653 5653 5653 5653 5653 5653 5653 5653 5653 5653 5653 5652 5652 5651 5650 5650 5649 5648 5647 5646 5645 5644 5643 5642 5641 5640 5639 5637 5636 5635 5633 5632 5631 5629 5627 5625 5623 5621 5620 5618 5616 5614 5612 5609 5607 5604 5602
5606 5607 5609 5610 5612 5614 5616 5618 5619 5621 5623 5624 5626 5627 5629 5631 5632 5634 5635 5637 5638 5640 5641 5642 5643 5644 5645 5646 5647 5648 5649 5650 5651 5651 5652 5652 5652 5653 5653 5653 5653 5653 5653 5653 5653 5653 5653 5652 5652 5652 5651 5651 5650 5650 5649 5648 5647 5646 5646 5645 5644 5643 5641 5640 5639 5638 5637 5635 5634 5632 5631 5629 5628 5626 5625 5623 5621 5619 5617 5615 5613 5611 5608 5606 5604 5601 5599
5608 5610 5612 5613 5615 5617 5618 5620 5622 5623 5625 5627 5628 5630 5631 5632 5634 5635 5637 5638 5640 5641 5642 5643 5644 5645 5646 5647 5648 5649 5650 5650 5651 5651 5652 5652 5652 5652 5653 5653 5653 5653 5652 5652 5652 5652 5651 5651 5650 5650 5649 5649 5648 5648 5647 5646 5645 5644 5643 5642 5641 5640 5639 5638 5637 5636 5634 5633 5631 5630 5628 5627 5625 5623 5622 5620 5618 5616 5614 5612 5609 5607 5605 5603 5601 5598 5596
5611 5613 5614 5616 5618 5619 5621 5622 5624 5625 5627 5628 5630 5631 5633 5634 5635 5637 5638 5639 5640 5642 5643 5644 5645 5646 5647 5648 5648 5649 5650 5650 5651 5651 5652 5652 5652 5652 5652 5652 5652 5652 5652 5651 5651 5651 5650 5649 5649 5648 5648 5647 5646 5645 5645 5644 5643 5642 5641 5640 5639 5638 5637 5636 5634 5633 5632 5630 5629 5627 5626 5624 5622 5620 5618 5617 5615 5613 5611 5608 5606 5604 5602 5599 5597 5595 5592
5614 5615 5617 5618 5620 5621 5623 5624 5626 5627 5628 5630 5631 5632 5634 5635 5636 5638 5639 5640 5641 5642 5643 5644 5645 5646 5647 5648 5648 5649 5650 5650 5651 5651 5651 5652 5652 5652 5652 5651 5651 5651 5651 5650 5650 5649 5649 5648 5647 5647 5646 5645 5644 5643 5642 5642 5641 5640 5638 5637 5636 5635 5634 5633 5632 5630 5629 5627 5626 5624 5623 5621 5619 5617 5615 5613 5611 5609 5607 5605 5603 5600 5598 5596 5593 5591 5589
5616 5617 5619 5620 5621 5623 5624 5626 5627 5628 5630 5631 5632 5633 5634 5636 5637 5638 5639 5640 5641 5642 5643 5644 5645 5646 5646 5647 5648 5649 5649 5650 5650 5650 5651 5651 5651 5651 5651 5650 5650 5650 5649 5649 5648 5648 5647 5646 5645 5645 5644 5643 5642 5641 5640 5639 5638 5637 5636 5635 5634 5632 5631 5630 5629 5627 5626 5624 5623 5621 5620 5618 5616 5614 5612 5610 5607 5605 5603 5601 5599 5596 5594 5592 5590 5587 5585
5617 5619 5620 5621 5623 5624 5625 5627 5628 5629 5630 5631 5633 5634 5635 5636 5637 5638 5639 5640 5641 5642 5643 5644 5645 5645 5646 5647 5648 5648 5649 5649 5649 5649 5650 5650 5650 5650 5649 5649 5649 5648 5648 5647 5646 5646 5645 5644 5643 5642 5641 5641 5640 5639 5638 5637 5636 5635 5633 5632 5631 5630 5628 5627 5626 5624 5623 5621 5620 5618 5616 5614 5613 5611 5609 5606 5604 5602 5599 5597 5595 5592 5590 5588 5586 5583 5581
5618 5619 5621 5622 5624 5625 5626 5627 5628 5629 5631 5632 5633 5634 5635 5636 5637 5638 5639 5640 5641 5642 5643 5644 5644 5645 5646 5646 5647 5647 5648 5648 5648 5648 5648 5648 5648 5648 5648 5647 5647 5646 5646 5645 5644 5643 5643 5642 5641 5640 5639 5638 5637 5636 5635 5634 5633 5632 5631 5629 5628 5627 5625 5624 5622 5621 5619 5618 5616 5615 5613 5611 5609 5607 5605 5603 5601 5598 5596 5593 5591 5589 5586 5584 5582 5579 5577
5618 5619 5621 5622 5623 5625 5626 5627 5628 5629 5630 5632 5633 5634 5635 5636 5637 5638 5639 5640 5641 5641 5642 5643 5644 5644 5645 5645 5646 5646 5646 5647 5647 5647 5647 5647 5647 5646 5646 5646 5645 5644 5644 5643 5642 5641 5640 5639 5638 5637 5636 5635 5634 5633 5632 5631 5630 5629 5628 5626 5625 5624 5622 5621 5619 5618 5616 5615 5613 5611 5609 5607 5606 5604 5602 5599 5597 5595 5592 5590 5587 5585 5582 5580 5578 5575 5573
5617 5619 5620 5621 5623 5624 5625 5627 5628 5629 5630 5631 5632 5633 5634 5635 5636 5637 5638 5639 5640 5641 5641 5642 5643 5643 5644 5644 5645 5645 5645 5645 5645 5645 5645 5645 5645 5644 5644 5643 5643 5642 5641 5640 5640 5639 5638 5637 5636 5635 5634 5633 5632 5630 5629 5628 5626 5625 5624 5623 5621 5620 5619 5617 5616 5614 5612 5611 5609 5607 5606 5604 5602 5600 5598 5595 5593 5591 5588 5586 5584 5581 5579 5576 5574 5571 5569
5617 5618 5619 5621 5622 5623 5624 5626 5627 5628 5629 5630 5631 5632 5633 5634 5635 5636 5637 5638 5639 5640 5640 5641 5642 5642 5642 5643 5643 5643 5644 5644 5644 5643 5643 5643 5643 5642 5642 5641 5640 5639 5639 5638 5637 5636 5635 5634 5633 5632 5631 5630 5629 5627 5626 5624 5623 5622 5620 5619 5617 5616 5615 5613 5612 5610 5609 5607 5605 5603 5602 5600 5598 5596 5594 5592 5589 5587 5585 5582 5580 5577 5575 5572 5570 5567 5565
5616 5617 5619 5620 5621 5622 5623 5625 5626 5627 5628 5629 5630 5631 5632 5633 5634 5635 5636 5637 5638 5638 5639 5640 5640 5640 5641 5641 5641 5642 5642 5642 5641 5641 5641 5641 5640 5640 5639 5638 5638 5637 5636 5635 5634 5633 5632 5631 5630 5629 5628 5626 5625 5624 5623 5621 5620 5618 5616 5615 5614 5612 5611 5609 5608 5606 5605 5603 5601 5599 5597 5596 5594 5592 5590 5587 5585 5583 5581 5578 5576 5573 5571 5568 5566 5563 5561
5615 5616 5618 5619 5620 5621 5623 5624 5625 5626 5627 5628 5629 5630 5631 5632 5633 5634 5635 5636 5636 5637 5637 5638 5638 5639 5639 5639 5639 5639 5639 5639 5639 5639 5638 5638 5638 5637 5636 5635 5635 5634 5633 5632 5631 5630 5629 5628 5627 5626 5624 5623 5622 5620 5619 5617 5616 5614 5613 5611 5610 5608 5607 5605 5603 5602 5600 5599 5597 5595 5593 5591 5589 5587 5585 5583 5581 5578 5576 5574 5571 5569 5566 5564 5561 5559 5556